Terminal Aerodrome Forecast
Issued by NWS

Home | Current Version | Previous Version | Text Only | Print | Product List | Glossary On
Versions: 1 2 3 4 5 6 7 8 9 10 11 12 13 14
000
FTUS46 KLOX 030542
TAFWJF
TAF
KWJF 030542Z 0306/0406 23012KT P6SM SKC
     FM031500 23018G28KT P6SM SKC
     FM031800 24025G35KT P6SM SKC
     FM040400 24018G28KT P6SM SKC=

USA.gov is the U.S. government's official web portal to all federal, state and local government web resources and services.